This is the latest recevied weather packets stored in our database for station/object KF7SOJ. If no packets are shown the sender has not sent any weather packets the latest 10 day(s).
| Time | Temp. | Humidity | Pressure | Rain* | Wind** | Luminosity | Snow |
|---|---|---|---|---|---|---|---|
| 1787831083 | 18.33° C | 52% | 934.7 hPa | 0 mm | - | 0 W/m² | - |
| 1787830781 | 18.33° C | 52% | 934.7 hPa | 0 mm | - | 0 W/m² | - |
| 1787830480 | 18.33° C | 52% | 934.7 hPa | 0 mm | - | 0 W/m² | - |
| 1787830179 | 18.89° C | 51% | 934.6 hPa | 0 mm | - | 0 W/m² | - |
| 1787829875 | 18.89° C | 51% | 934.6 hPa | 0 mm | - | 0 W/m² | - |
| 1787829574 | 18.89° C | 51% | 934.4 hPa | 0 mm | - | 0 W/m² | - |
| 1787829270 | 18.89° C | 51% | 934.6 hPa | 0 mm | - | 0 W/m² | - |
| 1787828965 | 18.33° C | 52% | 934.3 hPa | 0 mm | - | 0 W/m² | - |
| 1787828661 | 18.33° C | 53% | 934.4 hPa | 0 mm | - | 0 W/m² | - |
| 1787828357 | 18.33° C | 53% | 934.4 hPa | 0 mm | - | 0 W/m² | - |
| 1787828055 | 17.78° C | 54% | 934.3 hPa | 0 mm | - | 0 W/m² | - |
| 1787827749 | 18.33° C | 53% | 934.1 hPa | 0 mm | - | 0 W/m² | - |
| 1787827446 | 18.89° C | 51% | 934.3 hPa | 0 mm | - | 0 W/m² | - |
| 1787827144 | 18.89° C | 51% | 934.4 hPa | 0 mm | - | 0 W/m² | - |
| 1787826844 | 18.89° C | 51% | 934.3 hPa | 0 mm | - | 0 W/m² | - |
| 1787826539 | 18.89° C | 51% | 934.4 hPa | 0 mm | - | 0 W/m² | - |
| 1787826236 | 18.33° C | 52% | 934.3 hPa | 0 mm | - | 0 W/m² | - |
| 1787825936 | 18.33° C | 52% | 934.3 hPa | 0 mm | - | 0 W/m² | - |
| 1787825631 | 18.89° C | 51% | 934.3 hPa | 0 mm | - | 0 W/m² | - |
| 1787825330 | 18.89° C | 48% | 934.2 hPa | 0 mm | - | 0 W/m² | - |
| 1787825028 | 18.89° C | 47% | 934.1 hPa | 0 mm | - | 0 W/m² | - |
| 1787824726 | 19.44° C | 46% | 934 hPa | 0 mm | - | 0 W/m² | - |
| 1787824420 | 20° C | 44% | 934.3 hPa | 0 mm | - | 0 W/m² | - |
| 1787824115 | 21.11° C | 42% | 934.3 hPa | 0 mm | - | 0 W/m² | - |
| 1787823812 | 20.56° C | 42% | 934.7 hPa | 0 mm | - | 0 W/m² | - |
* Rain latest hour (hover to see other rain measurements)
** Current wind speed in m/s (hover to see current wind gust speed)